Location: Arcones
(41.1182°N, 3.7238°W)
Time: 05:36:17
(UTC+00:00)

IRAS Rocket - Pass Details

Date: 18 March 2026
Orbit: 845 x 876 km, 100.1° (Epoch: 15 April)

Event Time Altitude Azimuth Distance (km) Brightness Sun altitude
Rises 19:44:19 0° 162° (SSE) 3,451 7.1 -15.7°
Reaches altitude 10° 19:46:42 10° 162° (SSE) 2,514 6.4 -16.1°
Maximum altitude 19:52:18 89° 75° (ENE) 875 4.2 -17.1°
Drops below altitude 10° 19:57:54 10° 345° (NNW) 2,514 7.1 -18.2°
Sets 20:00:16 0° 345° (NNW) 3,450 7.8 -18.6°
